Location: Colossi of Memnon
(25.7167°N, 32.6167°E)
Time: 05:29:08
(UTC+00:00)

Cosmos 1805 Rocket - Pass Details

Date: 05 March 2021
Orbit: 605 x 630 km, 82.5° (Epoch: 17 April)

Event Time Altitude Azimuth Distance (km) Brightness Sun altitude
Rises 03:25:49 0° 339° (NNW) 2,918 6.8 -10.5°
Reaches altitude 10° 03:28:18 10° 328° (NNW) 2,007 5.9 -10.0°
Maximum altitude 03:32:05 28° 270° (W) 1,185 4.4 -9.1°
Drops below altitude 10° 03:35:51 10° 211° (SSW) 1,992 5.9 -8.3°
Sets 03:38:18 0° 199° (SSW) 2,892 6.8 -7.7°
